[[{"header":{"parameterUnit":"m.s-1","parameterCategory":1,"la1":30.2991,"la2":30.254,"lo1":-89.0895,"lo2":-89.0444,"dy":0.0017,"dx":0.0017,"nx":28,"ny":28,"refTime":"2025-07-09T03:00:00:Z","depth":0,"parameterNumber":2,"parameterNumberName":"U-component_of_WINDS"},"data":[0,0,0,0,0,0,0,0,0,0,0,0,0,0,0,0,0,0,0,0,0,0,0,0,0,0,0,0,0,0,0,0,0,0,0,0,0,0,0,0,0,0,0,0,0,0,0,0,0,0,0,0,0,0,0,0,0,0,3.4008,3.401,0,3.4199,3.4201,3.4204,3.4211,3.4209,3.4207,3.4205,3.4401,3.4408,3.4416,0,0,0,0,0,0,0,0,0,0,0,0,0,3.3649,3.3656,3.4008,3.401,3.4013,3.4199,3.4202,3.4204,3.4212,3.4209,3.4206,3.4204,3.4399,3.4407,3.4416,0,0,0,0,0,0,0,0,0,0,0,0,0,3.3819,3.3658,3.4007,3.4039,3.4044,3.4198,3.4202,3.4205,3.4212,3.4209,3.4206,3.4202,3.4396,3.4407,3.4417,3.4554,0,0,3.4451,3.4456,0,0,0,0,0,0,0,0,3.3809,3.3832,3.4032,3.4037,3.4043,3.4178,3.4147,3.4322,3.4213,3.4148,3.4205,3.4201,3.433,3.4346,3.4389,3.4563,3.4572,3.4452,3.4459,3.4464,3.4467,0,0,0,0,0,0,0,3.3798,3.3824,3.4084,3.4035,3.4041,3.4043,3.4064,3.418,3.4256,3.4154,3.4155,3.4177,3.4332,3.4379,3.4394,3.4574,3.4452,3.4462,3.4468,3.4473,3.4869,3.4873,0,0,0,0,0,0,3.378,3.3814,3.4078,3.4089,3.3915,3.4053,3.4075,3.4138,3.4255,3.4269,3.418,3.4177,3.4362,3.4381,3.4401,3.4567,3.4463,3.4474,3.448,3.4865,3.487,3.4874,0,0,0,0,0,0,3.3772,3.3803,3.407,3.3952,3.3986,3.4063,3.4133,3.4144,3.419,3.4274,3.4288,3.4214,3.436,3.4385,3.4516,3.4574,3.4479,3.4489,3.486,3.4866,3.4872,3.4902,0,0,0,0,0,0,3.3762,3.38,3.3853,3.3953,3.3993,3.4181,3.4136,3.415,3.4209,3.4207,3.431,3.4324,3.4359,3.4499,3.4527,3.4588,3.4497,3.4855,3.4863,3.487,3.4896,3.4908,3.4918,0,0,0,0,0,3.3749,3.3854,3.3855,3.3887,3.406,3.4185,3.4207,3.4245,3.4214,3.4267,3.4321,3.432,3.4564,3.4512,3.4543,3.4609,3.4852,3.4861,3.4869,3.4891,3.4905,3.4918,0,0,0,0,0,0,3.3759,3.3868,3.3871,3.4011,3.4089,3.4186,3.4254,3.426,3.4348,3.4342,3.4386,3.4409,3.4538,3.4587,3.4528,3.4747,3.4704,3.472,3.471,3.4724,3.4735,3.472,3.4507,0,0,0,0,0,3.3777,3.3869,3.396,3.4075,3.4114,3.4177,3.4233,3.4256,3.4338,3.4371,3.4434,3.4514,3.4608,3.4669,3.4761,3.4903,3.4925,3.4964,3.4975,3.4984,3.4996,3.5074,3.5092,3.4903,3.4903,3.4903,0,0,3.3816,3.3887,3.3943,3.4079,3.4141,3.4236,3.4205,3.4306,3.4376,3.4386,3.4512,3.4562,3.4654,3.479,3.4853,3.4835,3.5053,3.4995,3.5001,3.5009,3.5085,3.5102,3.5118,3.4909,3.4908,3.4907,0,0,3.3935,3.3999,3.4102,3.4165,3.426,3.4301,3.4326,3.4423,3.4456,3.4583,3.4592,3.4677,3.4839,3.4903,3.4957,3.5101,3.5103,3.513,3.5187,3.5263,3.5278,3.5291,3.5341,3.5358,3.5142,3.5142,3.5142,0,3.3972,3.4114,3.4154,3.4255,3.4314,3.4327,3.4431,3.4491,3.4611,3.4651,3.4629,3.4832,3.4894,3.5046,3.508,3.5124,3.5153,3.5117,3.5272,3.5286,3.5299,3.5347,3.5366,3.5145,3.5144,3.5144,3.5144,0,3.4154,3.4252,3.4324,3.4439,3.4507,3.4609,3.4663,3.4727,3.4744,3.4788,3.4917,3.4993,3.51,3.5138,3.5156,3.5292,3.5277,3.5263,3.5221,3.5319,3.5365,3.5384,3.5148,3.5147,3.5146,3.5146,0,0,3.4283,3.4419,3.4444,3.4496,3.4602,3.4679,3.4782,3.4886,3.4939,3.5022,3.5108,3.5245,3.5232,3.5294,3.5319,3.5386,3.5493,3.5364,3.5367,3.5384,3.5646,3.5655,3.5675,3.5496,3.5499,3.5502,3.5638,0,3.4413,3.4595,3.4633,3.4791,3.4882,3.4896,3.4985,3.506,3.5104,3.5187,3.5236,3.5332,3.5309,3.5346,3.5412,3.5466,3.5546,3.5457,3.5576,3.558,3.5551,3.57,3.571,3.5834,3.5656,3.5659,3.5662,0,3.4588,3.4674,3.484,3.4933,3.4973,3.5053,3.5151,3.5231,3.5315,3.5343,3.5411,3.543,3.5537,3.5491,3.5638,3.5576,3.5628,3.5662,3.5667,3.5679,3.5625,3.5713,3.5874,3.5892,3.569,3.5688,3.5686,0,3.4663,3.4821,3.4941,3.4985,3.5098,3.5153,3.5202,3.5284,3.5344,3.543,3.5469,3.5567,3.562,3.5695,3.5739,3.5702,3.5883,3.5841,3.5908,3.5906,3.5944,3.5941,3.6113,3.5979,3.5979,3.5979,3.5978,0,3.4803,3.4904,3.4976,3.505,3.5163,3.5207,3.5318,3.5367,3.5439,3.5522,3.5541,3.5619,3.5673,3.5758,3.5794,3.591,3.5934,3.5959,3.5967,3.5956,3.5953,3.5989,3.5981,3.5984,3.5983,3.5982,3.5981,0,3.4906,3.4959,3.509,3.5185,3.5212,3.5291,3.5373,3.5444,3.5489,3.5593,3.5621,3.569,3.5792,3.5843,3.597,3.5994,3.6124,3.6128,3.6095,3.6098,3.6161,3.6154,3.6362,3.6391,3.6239,3.6241,3.6242,0,3.499,3.5068,3.5172,3.5229,3.5279,3.5371,3.5432,3.5478,3.5541,3.5643,3.5703,3.5805,3.5889,3.605,3.6112,3.6208,3.6214,3.628,3.6228,3.6215,3.6213,3.6207,3.6214,3.6288,3.629,3.6291,3.6292,0,3.5134,3.5157,3.5244,3.5341,3.5413,3.5492,3.5569,3.5615,3.5673,3.5743,3.5846,3.5912,3.6041,3.6141,3.6243,3.6293,3.6303,3.6308,3.6328,3.6318,3.6295,3.6307,3.6118,3.6303,3.6302,3.6301,3.63,3.63,3.523,3.5299,3.5383,3.548,3.5543,3.5615,3.5686,3.574,3.5827,3.5935,3.5957,3.6066,3.6149,3.6286,3.634,3.6426,3.6412,3.6442,3.6449,3.6455,3.6457,3.6282,3.6445,3.6445,3.6445,3.6444,3.6444,0,3.5374,3.5428,3.5517,3.5624,3.57,3.5702,3.5788,3.5851,3.5947,3.6024,3.6106,3.6224,3.6322,3.6392,3.6492,3.6547,3.6554,3.6572,3.6567,3.6578,3.6465,3.6437,3.6564,3.6564,3.6564,3.6564,3.6564,3.6564,3.5457,3.5574,3.5606,3.5755,3.5809,3.5916,3.5965,3.6031,3.6092,3.6223,3.6305,3.635,3.6424,3.6529,3.6618,3.6636,3.6672,3.6689,3.6707,3.6599,3.6587,3.6574,3.6548,3.6697,3.6697,3.6813,3.6814,3.6815]},{"header":{"parameterUnit":"m.s-1","parameterCategory":1,"la1":30.2991,"la2":30.254,"lo1":-89.0895,"lo2":-89.0444,"dy":0.0017,"dx":0.0017,"nx":28,"ny":28,"refTime":"2025-07-09T03:00:00:Z","depth":0,"parameterNumber":3,"parameterNumberName":"V-component_of_WINDS"},"data":[0,0,0,0,0,0,0,0,0,0,0,0,0,0,0,0,0,0,0,0,0,0,0,0,0,0,0,0,0,0,0,0,0,0,0,0,0,0,0,0,0,0,0,0,0,0,0,0,0,0,0,0,0,0,0,0,0,0,3.8761,3.8764,0,3.9043,3.9046,3.9049,3.9102,3.91,3.9097,3.9095,3.9382,3.9391,3.9401,0,0,0,0,0,0,0,0,0,0,0,0,0,3.8266,3.8275,3.8761,3.8764,3.8768,3.9042,3.9046,3.905,3.9102,3.9099,3.9097,3.9094,3.9379,3.939,3.9402,0,0,0,0,0,0,0,0,0,0,0,0,0,3.8508,3.8278,3.876,3.8827,3.8836,3.9041,3.9046,3.9051,3.9103,3.9099,3.9096,3.9093,3.9375,3.9389,3.9404,3.9562,0,0,3.9448,3.9455,0,0,0,0,0,0,0,0,3.8494,3.8526,3.8814,3.8823,3.8833,3.9034,3.8977,3.9222,3.9104,3.9001,3.9095,3.9091,3.9269,3.9292,3.9352,3.9575,3.9587,3.945,3.9458,3.9465,3.9469,0,0,0,0,0,0,0,3.8477,3.8514,3.8872,3.8818,3.883,3.8842,3.8873,3.9023,3.9151,3.901,3.9015,3.9047,3.9273,3.9338,3.9359,3.9592,3.9449,3.9462,3.9471,3.9477,3.9958,3.9962,0,0,0,0,0,0,3.8449,3.85,3.8863,3.8881,3.8652,3.8854,3.8888,3.8973,3.9149,3.9173,3.905,3.9049,3.9315,3.9342,3.9369,3.9566,3.9465,3.9478,3.9487,3.9954,3.9959,3.9963,0,0,0,0,0,0,3.8438,3.8481,3.8852,3.8692,3.874,3.8866,3.896,3.898,3.9045,3.9179,3.9202,3.9093,3.9313,3.9349,3.9514,3.9577,3.9485,3.9498,3.9949,3.9955,3.9961,3.996,0,0,0,0,0,0,3.8423,3.8476,3.8538,3.8692,3.8748,3.8992,3.8964,3.8988,3.907,3.9071,3.9225,3.9248,3.9313,3.9491,3.9528,3.9595,3.951,3.9944,3.9952,3.9959,3.9955,3.9966,3.9975,0,0,0,0,0,3.8406,3.8527,3.8541,3.8585,3.8828,3.8995,3.9027,3.91,3.9075,3.9138,3.9224,3.9243,3.9564,3.9508,3.955,3.9622,3.994,3.995,3.9958,3.9951,3.9964,3.9974,0,0,0,0,0,0,3.8376,3.8548,3.8566,3.8741,3.8853,3.9004,3.9086,3.9111,3.9233,3.9229,3.9314,3.9348,3.9508,3.9582,3.9516,3.9784,3.975,3.9768,3.973,3.9744,3.9753,3.9732,3.9522,0,0,0,0,0,3.839,3.8512,3.8655,3.8796,3.8851,3.8959,3.9034,3.9081,3.92,3.9248,3.9347,3.9461,3.9588,3.967,3.9794,3.9966,4.0,4.0036,4.0046,4.0053,4.0067,4.0163,4.0181,3.9993,3.9993,3.9992,0,0,3.842,3.8529,3.8601,3.8793,3.8885,3.9009,3.8998,3.913,3.9222,3.9268,3.943,3.9506,3.9639,3.9808,3.9887,3.9874,4.0127,4.0064,4.0069,4.008,4.0174,4.0192,4.0208,3.9999,3.9998,3.9997,0,0,3.8538,3.8633,3.876,3.8853,3.8993,3.9064,3.9094,3.9242,3.9294,3.9458,3.9494,3.9605,3.9821,3.9915,3.9991,4.0143,4.0165,4.0181,4.0231,4.0324,4.0339,4.0352,4.0407,4.0425,4.0195,4.0195,4.0195,0,3.8558,3.8747,3.8822,3.8953,3.9036,3.9083,3.9212,3.9298,3.9471,3.9527,3.951,3.9782,3.9876,4.0067,4.0104,4.0164,4.0201,4.0164,4.0331,4.0345,4.0359,4.0412,4.0432,4.0196,4.0196,4.0196,4.0196,0,3.8764,3.8894,3.898,3.9146,3.9239,3.9368,3.9462,3.9547,3.9585,3.9657,3.9822,3.9935,4.0083,4.0132,4.017,4.0329,4.0316,4.0314,4.0282,4.0377,4.0428,4.0448,4.0198,4.0197,4.0197,4.0197,0,0,3.8872,3.9079,3.9109,3.9185,3.9342,3.9444,3.9575,3.972,3.979,3.9908,4.0019,4.0201,4.0199,4.0285,4.0335,4.0416,4.0529,4.0404,4.0408,4.0423,4.071,4.0711,4.0733,4.0544,4.0548,4.0551,4.0699,0,3.9009,3.9245,3.9316,3.9513,3.9634,3.968,3.9793,3.9902,3.9972,4.0084,4.0162,4.0289,4.0278,4.033,4.0413,4.0498,4.0588,4.0488,4.0648,4.0653,4.0614,4.076,4.0762,4.0896,4.0719,4.0723,4.0725,0,3.9201,3.9322,3.9531,3.9673,3.9727,3.9828,3.9966,4.0073,4.0196,4.0242,4.0337,4.038,4.0517,4.0476,4.0666,4.0596,4.0666,4.0717,4.0724,4.0743,4.0695,4.0782,4.094,4.096,4.0757,4.0755,4.0753,0,3.9259,3.9475,3.9628,3.9691,3.9861,3.993,4.0004,4.0124,4.0207,4.0327,4.0381,4.0515,4.0589,4.0692,4.0769,4.0732,4.0952,4.0918,4.0993,4.0991,4.1038,4.1034,4.1209,4.1082,4.1081,4.1081,4.108,0,3.9405,3.9531,3.9656,3.975,3.9893,3.9973,4.0111,4.0187,4.0294,4.0403,4.045,4.0551,4.0647,4.076,4.0821,4.0969,4.1002,4.1042,4.1057,4.1038,4.1033,4.1085,4.1078,4.1086,4.1085,4.1084,4.1083,0,3.9495,3.9583,3.9753,3.9899,3.9939,4.0037,4.0162,4.0255,4.0327,4.0464,4.0501,4.0613,4.0749,4.0836,4.1009,4.105,4.1212,4.1224,4.1171,4.1178,4.1248,4.124,4.1464,4.1497,4.1346,4.1347,4.1348,0,3.9582,3.9681,3.9837,3.9914,3.9988,4.0111,4.0195,4.0278,4.0363,4.0511,4.0586,4.0725,4.0841,4.1056,4.1153,4.1285,4.13,4.137,4.1321,4.1299,4.1302,4.1295,4.1305,4.1377,4.1379,4.138,4.1381,0,3.9728,3.9767,3.9887,4.0023,4.0122,4.0232,4.0343,4.0402,4.0503,4.0597,4.0737,4.0827,4.1004,4.1141,4.1282,4.1357,4.1386,4.1395,4.142,4.1402,4.1367,4.1387,4.1193,4.139,4.1389,4.1388,4.1388,4.1387,3.982,3.9909,4.0033,4.0165,4.0257,4.0359,4.0453,4.0536,4.0655,4.0806,4.0847,4.0993,4.1113,4.1305,4.1383,4.1498,4.1489,4.1524,4.1534,4.1541,4.1542,4.1348,4.1524,4.1524,4.1524,4.1523,4.1523,0,3.9969,4.005,4.0171,4.0324,4.0427,4.0445,4.0568,4.0653,4.0782,4.0892,4.1005,4.1165,4.1299,4.1405,4.1542,4.1614,4.163,4.1647,4.1643,4.166,4.1542,4.1508,4.1631,4.1631,4.1631,4.1631,4.1631,4.1631,4.0058,4.021,4.0263,4.0461,4.0542,4.0686,4.0754,4.0848,4.0937,4.1114,4.1225,4.1294,4.1403,4.1548,4.1671,4.1699,4.1747,4.1761,4.1791,4.168,4.1668,4.1657,4.1624,4.1771,4.1771,4.19,4.1901,4.1902]}]]